Regional Weather Roundup
Issued by NWS Newport/Morehead, NC

Current Version | Previous Version | Graphics & Text | Print | Product List | Glossary Off
Versions: 1 2 3 4 5 6 7 8 9 10 11 12 13 14 15 16 17 18 19 20 21 22 23 24 25 26 27 28 29 30 31 32 33 34 35 36 37 38 39 40 41 42 43 44 45 46 47 48 49 50

000
ASUS42 KMHX 181713
RWRMHX
WEATHER ROUNDUP FOR EASTERN NORTH CAROLINA
NATIONAL WEATHER SERVICE NEWPORT/MOREHEAD CITY NC
100 PM EDT WED OCT 18 2017

NOTE: "FAIR" INDICATES FEW OR NO CLOUDS BELOW 12,000 FEET
WITH NO SIGNIFICANT WEATHER AND/OR OBSTRUCTIONS TO VISIBILITY

NCZ015>017-031-032-045>047-102-103-181800-
NORTH COAST

CITY           SKY/WX    TMP DP  RH WIND       PRES   REMARKS
EDENTON        SUNNY     69  53  57 CALM      30.38F
ELIZABETH CITY SUNNY     68  53  58 NE13      30.37F
KITTY HAWK     SUNNY     67  52  57 NE6       30.35F
MANTEO         SUNNY    N/A N/A N/A E16       30.36F

$$

NCZ045>047-081-094-103-104-181800-
CENTRAL COAST

CITY           SKY/WX    TMP DP  RH WIND       PRES   REMARKS
FRISCO         SUNNY     71  57  61 NE12G22   30.32F

$$

NCZ095-097-098-100-101-181800-
SOUTHERN COAST

CITY           SKY/WX    TMP DP  RH WIND       PRES   REMARKS
BEAUFORT       SUNNY     71  52  50 NE12      30.32F
CEDAR ISLAND   NOT AVBL
JACKSONVILLE   SUNNY     70  54  56 N10       30.33F
PINEY ISLAND     N/A    N/A N/A N/A NE15      30.33F
WILMINGTON     SUNNY     71  53  52 NE12      30.32F


$$

NCZ011>013-027>030-043-044-078>080-089-090>093-098-181800-
COASTAL PLAIN

CITY           SKY/WX    TMP DP  RH WIND       PRES   REMARKS
AHOSKIE        SUNNY     64  48  56 NE8       30.39F
CLINTON        SUNNY     67  50  54 NE5       30.37F
ELIZABETHTOWN  NOT AVBL
GOLDSBORO      SUNNY     67  47  48 NE5       30.35F
GREENVILLE     SUNNY     66  46  48 E6        30.38F
HAVELOCK       SUNNY     71  50  47 NE13      30.34F
KENANSVILLE    SUNNY     66  50  55 CALM      30.36F
KINSTON        SUNNY     68  48  49 E3        30.37F
NEW BERN       SUNNY     70  32  24 N6        30.35F
RICHLANDS      SUNNY     68  52  56 NE9       30.35F
ROCKY MOUNT    SUNNY     66  47  50 NE10      30.38F
WASHINGTON     SUNNY     68  51  55 NE5       30.37F
WHITEVILLE     SUNNY     66  52  59 NE7       30.34F

$$

AMZ130-135-150-152-154-156-158-170-250-252-270-ANZ085-086-088-633-658-670-181800-
MARINE OBSERVATIONS

STATION/POSITION TIME  TEMP    WIND        PRES    WAVE   SWELL
                       AIR SEA DIR/SP/G            HT/PER HT/PER
                 (UTC) (F)     (DEG/KT/KT) (MB)    (FT/S) (FT/S)
CHESAPEAKE LIGHT NOT AVBL
64 E VA BEACH    1650   64 67   40/ 10/ 12 1028.7    5/ 8   5/ 8
DUCK             1636   64 68   50/ 14/ 16 1028.1
2 E DUCK         1630      70                N/A     4/ 7   2/11
OREGON INLET     1636   66 64   30/ 13/ 16 1027.6
13E OREGON INLT  1648      71                N/A     5/ 9   3/ 9
HATTERAS CG      1636   66 67   30/ 12/ 19 1026.9
DIAMOND BUOY     1650   70 82   20/ 19/ 23 1025.5    6/ 9   3/ 9
CAPE LOOKOUT     1700   69      10/ 13/ 17 1026.2
BEAUFORT LAB     1636   68 69   10/ 11/ 15 1027.0
30 SE NEW RVR IN NOT AVBL
30 SE NEW RVR IN NOT AVBL
27 SE WRIGHTSVLE NOT AVBL
5 SE WRIGHTSVLE  1608   66 74   30/ 14/ 23 1026.9
225 S CAPE HAT   1650   75 80   50/ 23/ 27 1020.3   10/ 8
41 SE CHARLESTON 1650   72 80   30/ 21/ 27 1024.1    9/10   5/10

$$




USA.gov is the U.S. government's official web portal to all federal, state and local government web resources and services.